sat.trackr.live / text

‹ back to catalog

SPACEVAN-002

NORAD 68424 · 2026-067J

PAYLOAD ACTIVE UNKNOWN

§ Identity

Operator
Country
FR
Launch date
2026-03-30
Launch site
AFWTR
Launch vehicle
Mass (kg)
RCS (m²)

External: N2YO · Heavens-Above · Gunter

§ Orbital elements

Epoch: 2026-09-19T16:26:01.589568Z

Period
94.76 min
Inclination
97.4625°
Eccentricity
0.0003445
Mean motion
15.19643909 rev/d
Perigee alt
504.5 km
Apogee alt
509.3 km
Semi-major
6,885.1 km
B*
1.4491e-4
RAAN
219.8545°
Arg perigee
73.2102°
Mean anomaly
286.9511°
Rev number
2,628

§ Raw data

SPACEVAN-0021 68424U 26067J   26262.68474062  .00003021  00000+0  14491-3 0  99972 68424  97.4625 219.8545 0003445  73.2102 286.9511 15.19643909 26281

JSON: /api/v1/satellites/68424 · /tle

For live sub-satellite position, see the globe view (requires WebGL).

§ Visibility from observer

Set your observer location to see the next 7 days of passes ≥ 10°. The values pass through the URL so the page stays shareable.

No JS? Fill the form by hand. The geolocation button needs JavaScript.